Time,TemperatureF,DewpointF,PressureIn,WindDirection,WindDirectionDegrees,WindSpeedMPH,WindSpeedGustMPH,Humidity,HourlyPrecipIn,Conditions,Clouds,dailyrainin,SoftwareType,DateUTC
2013-04-17 00:14:00,75.6,-31.5,29.67,ESE,112,4.7,-999.0,1,-99.99,,,0.00,Acu-Link.com,2013-04-17 05:14:00,
2013-04-17 00:29:00,75.6,37.3,29.67,SW,225,10.4,-999.0,25,-99.99,,,0.00,Acu-Link.com,2013-04-17 05:29:00,
2013-04-17 00:44:00,75.6,-31.5,29.67,SE,135,5.8,-999.0,1,-99.99,,,0.00,Acu-Link.com,2013-04-17 05:44:00,
2013-04-17 00:59:00,75.4,-31.6,29.67,SSE,157,3.7,-999.0,1,-99.99,,,0.00,Acu-Link.com,2013-04-17 05:59:00,
2013-04-17 01:14:00,75.2,71.1,29.67,NE,45,5.3,-999.0,87,-99.99,,,0.00,Acu-Link.com,2013-04-17 06:14:00,
2013-04-17 01:29:00,75.2,-31.7,29.66,South,180,8.9,-999.0,1,-99.99,,,0.00,Acu-Link.com,2013-04-17 06:29:00,
2013-04-17 01:44:00,74.8,-31.9,29.66,SE,135,5.8,-999.0,1,-99.99,,,0.00,Acu-Link.com,2013-04-17 06:44:00,
2013-04-17 02:00:00,75.0,-31.8,29.65,SSE,157,3.2,-999.0,1,-99.99,,,0.00,Acu-Link.com,2013-04-17 07:00:00,
2013-04-17 02:15:00,74.7,-32.0,29.65,East,90,5.3,-999.0,1,-99.99,,,0.00,Acu-Link.com,2013-04-17 07:15:00,
2013-04-17 02:30:00,74.8,-31.9,29.65,SE,135,2.7,-999.0,1,-99.99,,,0.00,Acu-Link.com,2013-04-17 07:30:00,
2013-04-17 02:45:00,74.8,33.4,29.65,SE,135,6.3,-999.0,22,-99.99,,,0.00,Acu-Link.com,2013-04-17 07:45:00,
2013-04-17 03:01:00,74.8,-31.9,29.65,East,90,7.3,-999.0,1,-99.99,,,0.00,Acu-Link.com,2013-04-17 08:01:00,
2013-04-17 03:16:00,74.8,-31.9,29.64,SSE,157,6.8,-999.0,1,-99.99,,,0.00,Acu-Link.com,2013-04-17 08:16:00,
2013-04-17 03:46:00,74.7,-32.0,29.65,ENE,67,3.7,-999.0,1,-99.99,,,0.00,Acu-Link.com,2013-04-17 08:46:00,
2013-04-17 04:02:00,74.5,-32.1,29.65,SE,135,4.2,-999.0,1,-99.99,,,0.00,Acu-Link.com,2013-04-17 09:02:00,
2013-04-17 04:17:00,74.5,-32.1,29.65,South,180,6.3,-999.0,1,-99.99,,,0.00,Acu-Link.com,2013-04-17 09:17:00,
2013-04-17 04:32:00,74.3,-32.2,29.65,ESE,112,3.2,-999.0,1,-99.99,,,0.00,Acu-Link.com,2013-04-17 09:32:00,
2013-04-17 04:47:00,74.3,-32.2,29.65,ESE,112,1.7,-999.0,1,-99.99,,,0.00,Acu-Link.com,2013-04-17 09:47:00,
2013-04-17 05:03:00,74.3,-32.2,29.65,ESE,112,2.7,-999.0,1,-99.99,,,0.00,Acu-Link.com,2013-04-17 10:03:00,
2013-04-17 05:18:00,73.9,35.9,29.65,ESE,112,2.7,-999.0,25,-99.99,,,0.00,Acu-Link.com,2013-04-17 10:18:00,
2013-04-17 05:33:00,73.8,-32.5,29.65,ESE,112,2.2,-999.0,1,-99.99,,,0.00,Acu-Link.com,2013-04-17 10:33:00,
2013-04-17 05:48:00,73.6,-32.7,29.66,ESE,112,2.2,-999.0,1,-99.99,,,0.00,Acu-Link.com,2013-04-17 10:48:00,
2013-04-17 06:04:00,73.4,-32.8,29.66,ESE,112,1.1,-999.0,1,-99.99,,,0.00,Acu-Link.com,2013-04-17 11:04:00,
2013-04-17 06:19:00,73.2,-32.9,29.67,East,90,2.7,-999.0,1,-99.99,,,0.00,Acu-Link.com,2013-04-17 11:19:00,
2013-04-17 06:34:00,73.0,-33.0,29.67,SSE,157,1.7,-999.0,1,-99.99,,,0.00,Acu-Link.com,2013-04-17 11:34:00,
2013-04-17 06:49:00,73.0,-33.0,29.67,ESE,112,1.7,-999.0,1,-99.99,,,0.00,Acu-Link.com,2013-04-17 11:49:00,
2013-04-17 07:05:00,72.9,-33.1,29.68,NE,45,0.0,-999.0,1,-99.99,,,0.00,Acu-Link.com,2013-04-17 12:05:00,
2013-04-17 07:20:00,73.0,-33.0,29.69,ESE,112,1.7,-999.0,1,-99.99,,,0.00,Acu-Link.com,2013-04-17 12:20:00,
2013-04-17 07:35:00,73.4,-32.8,29.70,ESE,112,2.2,-999.0,1,-99.99,,,0.00,Acu-Link.com,2013-04-17 12:35:00,
2013-04-17 07:50:00,73.9,-32.5,29.69,ESE,112,3.7,-999.0,1,-99.99,,,0.00,Acu-Link.com,2013-04-17 12:50:00,
2013-04-17 08:05:00,74.5,-32.1,29.70,East,90,4.7,-999.0,1,-99.99,,,0.00,Acu-Link.com,2013-04-17 13:05:00,
2013-04-17 08:21:00,75.6,-4.7,29.69,ENE,67,5.3,-999.0,4,-99.99,,,0.00,Acu-Link.com,2013-04-17 13:21:00,
2013-04-17 08:36:00,75.9,-31.3,29.69,ESE,112,4.7,-999.0,1,-99.99,,,0.00,Acu-Link.com,2013-04-17 13:36:00,
2013-04-17 08:51:00,76.8,-30.7,29.69,SSE,157,3.7,-999.0,1,-99.99,,,0.00,Acu-Link.com,2013-04-17 13:51:00,
2013-04-17 09:06:00,78.3,-29.9,29.69,East,90,6.8,-999.0,1,-99.99,,,0.00,Acu-Link.com,2013-04-17 14:06:00,
2013-04-17 09:22:00,80.4,-28.6,29.70,South,180,4.2,-999.0,1,-99.99,,,0.00,Acu-Link.com,2013-04-17 14:22:00,
2013-04-17 09:37:00,82.2,-27.5,29.69,SSE,157,4.2,-999.0,1,-99.99,,,0.00,Acu-Link.com,2013-04-17 14:37:00,
2013-04-17 09:52:00,84.6,-26.1,29.69,ESE,112,6.8,-999.0,1,-99.99,,,0.00,Acu-Link.com,2013-04-17 14:52:00,
2013-04-17 10:08:00,84.6,-26.1,29.69,ESE,112,6.3,-999.0,1,-99.99,,,0.00,Acu-Link.com,2013-04-17 15:08:00,
2013-04-17 10:23:00,84.2,-26.3,29.69,ESE,112,4.2,-999.0,1,-99.99,,,0.00,Acu-Link.com,2013-04-17 15:23:00,
2013-04-17 10:38:00,83.8,-26.6,29.69,SSE,157,6.8,-999.0,1,-99.99,,,0.00,Acu-Link.com,2013-04-17 15:38:00,
2013-04-17 10:53:00,85.3,-25.7,29.70,SSE,157,7.3,-999.0,1,-99.99,,,0.00,Acu-Link.com,2013-04-17 15:53:00,
2013-04-17 11:08:00,86.9,-24.8,29.70,South,180,5.8,-999.0,1,-99.99,,,0.00,Acu-Link.com,2013-04-17 16:08:00,
2013-04-17 11:23:00,86.5,-25.0,29.68,SE,135,11.9,-999.0,1,-99.99,,,0.00,Acu-Link.com,2013-04-17 16:23:00,
2013-04-17 11:38:00,86.9,-24.8,29.68,SSE,157,8.9,-999.0,1,-99.99,,,0.00,Acu-Link.com,2013-04-17 16:38:00,
2013-04-17 11:53:00,87.4,-24.5,29.67,SE,135,8.3,-999.0,1,-99.99,,,0.00,Acu-Link.com,2013-04-17 16:53:00,
2013-04-17 12:08:00,87.6,-24.3,29.67,SE,135,6.3,-999.0,1,-99.99,,,0.00,Acu-Link.com,2013-04-17 17:08:00,
2013-04-17 12:23:00,86.5,-25.0,29.68,ESE,112,7.8,-999.0,1,-99.99,,,0.00,Acu-Link.com,2013-04-17 17:23:00,
2013-04-17 12:39:00,87.8,-24.2,29.67,ESE,112,7.3,-999.0,1,-99.99,,,0.00,Acu-Link.com,2013-04-17 17:39:00,
2013-04-17 12:54:00,86.4,-25.0,29.66,NE,45,4.7,-999.0,1,-99.99,,,0.00,Acu-Link.com,2013-04-17 17:54:00,
2013-04-17 13:09:00,86.0,-25.3,29.65,ESE,112,9.9,-999.0,1,-99.99,,,0.00,Acu-Link.com,2013-04-17 18:09:00,
2013-04-17 13:24:00,88.2,-24.0,29.65,South,180,4.7,-999.0,1,-99.99,,,0.00,Acu-Link.com,2013-04-17 18:24:00,
2013-04-17 13:39:00,88.0,-24.1,29.65,ESE,112,6.3,-999.0,1,-99.99,,,0.00,Acu-Link.com,2013-04-17 18:39:00,
2013-04-17 13:54:00,87.1,-24.6,29.64,SSE,157,3.7,-999.0,1,-99.99,,,0.00,Acu-Link.com,2013-04-17 18:54:00,
2013-04-17 14:09:00,86.9,-24.8,29.64,SSE,157,6.8,-999.0,1,-99.99,,,0.00,Acu-Link.com,2013-04-17 19:09:00,
2013-04-17 14:24:00,86.7,-24.9,29.64,SE,135,5.3,-999.0,1,-99.99,,,0.00,Acu-Link.com,2013-04-17 19:24:00,
2013-04-17 14:39:00,87.1,-24.6,29.64,NE,45,7.3,-999.0,1,-99.99,,,0.00,Acu-Link.com,2013-04-17 19:39:00,
2013-04-17 14:54:00,84.9,-25.9,29.63,SSE,157,5.8,-999.0,1,-99.99,,,0.00,Acu-Link.com,2013-04-17 19:54:00,
2013-04-17 15:10:00,87.3,-24.5,29.62,SE,135,6.3,-999.0,1,-99.99,,,0.00,Acu-Link.com,2013-04-17 20:10:00,
2013-04-17 15:25:00,86.9,-24.8,29.62,South,180,7.8,-999.0,1,-99.99,,,0.00,Acu-Link.com,2013-04-17 20:25:00,
2013-04-17 15:40:00,85.3,-25.7,29.62,South,180,11.4,-999.0,1,-99.99,,,0.00,Acu-Link.com,2013-04-17 20:40:00,
2013-04-17 15:55:00,84.6,-26.1,29.61,SSW,202,7.3,-999.0,1,-99.99,,,0.00,Acu-Link.com,2013-04-17 20:55:00,
2013-04-17 16:10:00,86.9,-24.8,29.60,ESE,112,10.4,-999.0,1,-99.99,,,0.00,Acu-Link.com,2013-04-17 21:10:00,
2013-04-17 16:25:00,87.1,-24.6,29.59,East,90,5.3,-999.0,1,-99.99,,,0.00,Acu-Link.com,2013-04-17 21:25:00,
2013-04-17 16:40:00,87.1,-24.6,29.58,SW,225,8.3,-999.0,1,-99.99,,,0.00,Acu-Link.com,2013-04-17 21:40:00,
2013-04-17 16:55:00,85.6,-25.5,29.58,SSE,157,5.8,-999.0,1,-99.99,,,0.00,Acu-Link.com,2013-04-17 21:55:00,
2013-04-17 17:11:00,86.4,-25.0,29.57,South,180,14.0,-999.0,1,-99.99,,,0.00,Acu-Link.com,2013-04-17 22:11:00,
2013-04-17 17:26:00,86.7,-24.9,29.56,ESE,112,11.4,-999.0,1,-99.99,,,0.00,Acu-Link.com,2013-04-17 22:26:00,
2013-04-17 17:41:00,84.7,-26.1,29.56,SSE,157,10.4,-999.0,1,-99.99,,,0.00,Acu-Link.com,2013-04-17 22:41:00,
2013-04-17 17:57:00,84.7,-26.1,29.56,SE,135,7.8,-999.0,1,-99.99,,,0.00,Acu-Link.com,2013-04-17 22:57:00,
2013-04-17 18:12:00,84.4,-26.2,29.56,SSW,202,2.2,-999.0,1,-99.99,,,0.00,Acu-Link.com,2013-04-17 23:12:00,
2013-04-17 18:27:00,83.3,-26.9,29.55,South,180,4.2,-999.0,1,-99.99,,,0.00,Acu-Link.com,2013-04-17 23:27:00,
2013-04-17 18:42:00,83.1,-27.0,29.55,South,180,10.4,-999.0,1,-99.99,,,0.00,Acu-Link.com,2013-04-17 23:42:00,
2013-04-17 18:58:00,81.9,-27.7,29.55,SSE,157,6.3,-999.0,1,-99.99,,,0.00,Acu-Link.com,2013-04-17 23:58:00,
2013-04-17 19:28:00,80.2,-28.7,29.55,East,90,3.7,-999.0,1,-99.99,,,0.00,Acu-Link.com,2013-04-18 00:28:00,
2013-04-17 19:43:00,79.7,-29.0,29.55,SSE,157,4.2,-999.0,1,-99.99,,,0.00,Acu-Link.com,2013-04-18 00:43:00,
2013-04-17 19:58:00,79.3,-29.3,29.55,SSE,157,4.2,-999.0,1,-99.99,,,0.00,Acu-Link.com,2013-04-18 00:58:00,
2013-04-17 20:13:00,79.2,-29.3,29.55,South,180,2.7,-999.0,1,-99.99,,,0.00,Acu-Link.com,2013-04-18 01:13:00,
2013-04-17 20:28:00,78.6,-29.7,29.55,SSE,157,6.3,-999.0,1,-99.99,,,0.00,Acu-Link.com,2013-04-18 01:28:00,
2013-04-17 20:43:00,78.1,-30.0,29.55,ENE,67,3.2,-999.0,1,-99.99,,,0.00,Acu-Link.com,2013-04-18 01:43:00,
2013-04-17 20:58:00,77.9,-30.1,29.56,SE,135,5.8,-999.0,1,-99.99,,,0.00,Acu-Link.com,2013-04-18 01:58:00,
2013-04-17 21:14:00,77.5,-30.3,29.55,ENE,67,8.3,-999.0,1,-99.99,,,0.00,Acu-Link.com,2013-04-18 02:14:00,
2013-04-17 21:29:00,77.7,-30.2,29.55,ESE,112,6.8,-999.0,1,-99.99,,,0.00,Acu-Link.com,2013-04-18 02:29:00,
2013-04-17 21:44:00,77.4,-30.4,29.55,SE,135,4.7,-999.0,1,-99.99,,,0.00,Acu-Link.com,2013-04-18 02:44:00,
2013-04-17 21:59:00,77.4,-30.4,29.56,NNE,22,4.7,-999.0,1,-99.99,,,0.00,Acu-Link.com,2013-04-18 02:59:00,
2013-04-17 22:14:00,77.0,-30.6,29.55,SE,135,5.8,-999.0,1,-99.99,,,0.00,Acu-Link.com,2013-04-18 03:14:00,
2013-04-17 22:30:00,77.0,-30.6,29.55,ESE,112,4.2,-999.0,1,-99.99,,,0.00,Acu-Link.com,2013-04-18 03:30:00,
2013-04-17 22:45:00,76.8,-30.7,29.55,West,270,6.8,-999.0,1,-99.99,,,0.00,Acu-Link.com,2013-04-18 03:45:00,
2013-04-17 23:00:00,76.5,-30.9,29.55,SE,135,5.3,-999.0,1,-99.99,,,0.00,Acu-Link.com,2013-04-18 04:00:00,
2013-04-17 23:15:00,76.5,-30.9,29.54,ESE,112,4.7,-999.0,1,-99.99,,,0.00,Acu-Link.com,2013-04-18 04:15:00,
2013-04-17 23:30:00,76.1,-31.2,29.55,ESE,112,4.2,-999.0,1,-99.99,,,0.00,Acu-Link.com,2013-04-18 04:30:00,
2013-04-17 23:45:00,75.9,-31.3,29.55,South,180,6.3,-999.0,1,-99.99,,,0.00,Acu-Link.com,2013-04-18 04:45:00,